SA27 CYKF-CYXU

Flight info

Callsign SA27
Flight time 0h 16m
Altitude 3000
Route CYKF/26 VFR WESTBOUND
Aircraft L39/L-V/N

Departure

Time 2026-05-09 02:31
Airport Region of Waterloo International Airport (CYKF)

Arrival

Time 2026-05-09 02:47
Airport London International Airport (CYXU)
Time Latitude Longitude Altitude Speed Heading
2026-05-09 02:24 43.45581 -80.38840 1031 ft 0 kts 329°
2026-05-09 02:25 43.45594 -80.38852 1031 ft 14 kts 323°
2026-05-09 02:25 43.45677 -80.38832 1031 ft 12 kts 78°
2026-05-09 02:25 43.45699 -80.38772 1032 ft 11 kts 66°
2026-05-09 02:25 43.45749 -80.38622 1034 ft 20 kts 67°
2026-05-09 02:26 43.45806 -80.38456 1035 ft 19 kts 61°
2026-05-09 02:26 43.45862 -80.38295 1035 ft 18 kts 67°
2026-05-09 02:26 43.45911 -80.38141 1037 ft 17 kts 67°
2026-05-09 02:26 43.45957 -80.38002 1039 ft 15 kts 65°
2026-05-09 02:27 43.46001 -80.37872 1041 ft 14 kts 65°
2026-05-09 02:27 43.46041 -80.37751 1043 ft 13 kts 63°
2026-05-09 02:27 43.46083 -80.37632 1045 ft 14 kts 65°
2026-05-09 02:27 43.46125 -80.37507 1047 ft 14 kts 65°
2026-05-09 02:28 43.46164 -80.37385 1048 ft 13 kts 64°
2026-05-09 02:28 43.46204 -80.37272 1050 ft 13 kts 65°
2026-05-09 02:28 43.46241 -80.37164 1051 ft 12 kts 65°
2026-05-09 02:28 43.46274 -80.37063 1053 ft 12 kts 66°
2026-05-09 02:29 43.46312 -80.36949 1054 ft 15 kts 66°
2026-05-09 02:29 43.46355 -80.36819 1056 ft 14 kts 64°
2026-05-09 02:29 43.46397 -80.36697 1057 ft 14 kts 67°
2026-05-09 02:29 43.46441 -80.36590 1059 ft 12 kts 33°
2026-05-09 02:30 43.46557 -80.36567 1060 ft 17 kts 346°
2026-05-09 02:30 43.46592 -80.36622 1059 ft 0 kts 247°
2026-05-09 02:30 43.46435 -80.37085 1052 ft 117 kts 243°
2026-05-09 02:30 43.45975 -80.38484 1322 ft 206 kts 243°
2026-05-09 02:31 43.45481 -80.40099 3837 ft 161 kts 248°
2026-05-09 02:31 43.45055 -80.41681 5812 ft 203 kts 248°
2026-05-09 02:31 43.44424 -80.43816 6629 ft 276 kts 248°
2026-05-09 02:31 43.43737 -80.45978 9286 ft 197 kts 248°
2026-05-09 02:32 43.43148 -80.47835 9960 ft 236 kts 250°
2026-05-09 02:32 43.42560 -80.50062 10202 ft 256 kts 253°
2026-05-09 02:32 43.42095 -80.52499 10497 ft 271 kts 258°
2026-05-09 02:32 43.41635 -80.55366 10518 ft 343 kts 258°
2026-05-09 02:33 43.41104 -80.58815 10516 ft 389 kts 259°
2026-05-09 02:33 43.40719 -80.62599 10504 ft 409 kts 269°
2026-05-09 02:33 43.41237 -80.66482 10489 ft 420 kts 288°
2026-05-09 02:33 43.42549 -80.70095 10494 ft 425 kts 298°
2026-05-09 02:34 43.44144 -80.73538 10501 ft 428 kts 301°
2026-05-09 02:34 43.45839 -80.76901 10501 ft 428 kts 303°
2026-05-09 02:34 43.47575 -80.80232 10500 ft 429 kts 303°
2026-05-09 02:34 43.49330 -80.83557 10505 ft 429 kts 303°
2026-05-09 02:35 43.51091 -80.86879 10503 ft 429 kts 304°
2026-05-09 02:35 43.52695 -80.90318 10487 ft 426 kts 295°
2026-05-09 02:35 43.53845 -80.94073 10484 ft 425 kts 291°
2026-05-09 02:35 43.55348 -80.97586 10471 ft 430 kts 307°
2026-05-09 02:36 43.60516 -81.01760 10572 ft 443 kts 340°
2026-05-09 02:36 43.63440 -81.03060 10567 ft 440 kts 333°
2026-05-09 02:36 43.65937 -81.05404 10568 ft 433 kts 314°
2026-05-09 02:37 43.67675 -81.08738 10567 ft 428 kts 295°
2026-05-09 02:37 43.68483 -81.12658 10565 ft 425 kts 276°
2026-05-09 02:37 43.68446 -81.16730 10563 ft 425 kts 265°
2026-05-09 02:37 43.68056 -81.20773 10562 ft 425 kts 261°
2026-05-09 02:38 43.67532 -81.24796 10567 ft 425 kts 259°
2026-05-09 02:38 43.66875 -81.28784 10560 ft 426 kts 254°
2026-05-09 02:38 43.65491 -81.32397 10556 ft 431 kts 234°
2026-05-09 02:38 43.63265 -81.35180 10529 ft 438 kts 216°
2026-05-09 02:39 43.60447 -81.36833 10460 ft 446 kts 197°
2026-05-09 02:39 43.57338 -81.37149 10465 ft 453 kts 180°
2026-05-09 02:39 43.54203 -81.36563 10468 ft 456 kts 173°
2026-05-09 02:39 43.51092 -81.35651 10468 ft 457 kts 171°
2026-05-09 02:40 43.48001 -81.34599 10469 ft 458 kts 169°
2026-05-09 02:40 43.44953 -81.33293 10474 ft 460 kts 165°
2026-05-09 02:40 43.41942 -81.31812 10491 ft 460 kts 163°
2026-05-09 02:40 43.38940 -81.30263 10492 ft 460 kts 163°
2026-05-09 02:41 43.35950 -81.28690 10498 ft 460 kts 162°
2026-05-09 02:41 43.32961 -81.27102 10500 ft 460 kts 162°
2026-05-09 02:41 43.30261 -81.25729 8865 ft 335 kts 169°
2026-05-09 02:41 43.28252 -81.25081 7955 ft 294 kts 171°
2026-05-09 02:42 43.26281 -81.24419 7214 ft 286 kts 169°
2026-05-09 02:42 43.24403 -81.23786 6748 ft 272 kts 169°
2026-05-09 02:42 43.22627 -81.23264 6424 ft 256 kts 171°
2026-05-09 02:42 43.20919 -81.22803 6093 ft 246 kts 173°
2026-05-09 02:43 43.19218 -81.22439 5518 ft 247 kts 174°
2026-05-09 02:43 43.17500 -81.22127 5109 ft 247 kts 175°
2026-05-09 02:43 43.15804 -81.21876 4846 ft 248 kts 176°
2026-05-09 02:43 43.14070 -81.21673 4467 ft 253 kts 178°
2026-05-09 02:44 43.12306 -81.21518 4102 ft 254 kts 178°
2026-05-09 02:44 43.10561 -81.21382 3739 ft 241 kts 179°
2026-05-09 02:44 43.08986 -81.21042 3308 ft 220 kts 168°
2026-05-09 02:44 43.07675 -81.20168 2992 ft 203 kts 144°
2026-05-09 02:45 43.06650 -81.18922 2551 ft 194 kts 140°
2026-05-09 02:45 43.05587 -81.17616 2231 ft 230 kts 142°
2026-05-09 02:45 43.04297 -81.16087 2146 ft 242 kts 141°
2026-05-09 02:45 43.04590 -81.14624 2140 ft 196 kts
2026-05-09 02:46 43.05577 -81.15460 1739 ft 144 kts 271°
2026-05-09 02:46 43.05185 -81.16367 1335 ft 108 kts 201°
2026-05-09 02:46 43.04502 -81.16298 1115 ft 97 kts 145°
2026-05-09 02:46 43.03996 -81.15728 920 ft 90 kts 140°
2026-05-09 02:47 43.03598 -81.15257 907 ft 59 kts 137°
2026-05-09 02:47 43.03343 -81.14939 906 ft 42 kts 139°
2026-05-09 02:47 43.03150 -81.14707 905 ft 33 kts 140°
2026-05-09 02:47 43.02971 -81.14553 905 ft 28 kts 199°
2026-05-09 02:48 43.02896 -81.14646 906 ft 17 kts 227°
2026-05-09 02:48 43.02937 -81.14769 906 ft 19 kts 320°
2026-05-09 02:48 43.03057 -81.14913 906 ft 25 kts 319°
2026-05-09 02:48 43.03186 -81.15068 906 ft 25 kts 319°
2026-05-09 02:49 43.03261 -81.15187 906 ft 25 kts 251°
2026-05-09 02:49 43.03196 -81.15299 906 ft 14 kts 223°
2026-05-09 02:49 43.03125 -81.15393 906 ft 15 kts 224°
2026-05-09 02:49 43.03052 -81.15492 906 ft 15 kts 228°
2026-05-09 02:50 43.02988 -81.15519 906 ft 0 kts 134°